Regional Weather Roundup
Issued by NWS Burlington, VT

Home | Current Version | Previous Version | Text Only | Print | Product List | Glossary On
Versions: 1 2 3 4 5 6 7 8 9 10 11 12 13 14 15 16 17 18 19 20 21 22 23 24 25 26 27 28 29 30 31 32 33 34 35 36 37 38 39 40 41 42 43 44 45 46 47 48 49 50
000
ASUS41 KBTV 221730
RWRBTV
VERMONT REGIONAL WEATHER ROUNDUP
NATIONAL WEATHER SERVICE BURLINGTON VT
100 PM EDT SUN OCT 22 2017

NOTE: "FAIR" INDICATES FEW OR NO CLOUDS BELOW 12,000 FEET WITH NO
SIGNIFICANT WEATHER AND/OR OBSTRUCTIONS TO VISIBILITY.

* THESE REPORTS ARE NOT UNDER NWS QUALITY CONTROL AND/OR DO NOT
  REPORT WEATHER SUCH AS PRECIPITATION AND FOG.

VTZ001>019-221800-
_____VERMONT_____


CITY           SKY/WX    TMP DP  RH WIND       PRES   REMARKS
BURLINGTON     PTSUNNY   74  44  34 S12       30.30F
MORRISVILLE    SUNNY     71  46  40 CALM      30.34F
ST. JOHNSBURY*   N/A     69  49  48 MISG      30.34F
LYNDONVILLE*   FAIR      69  44  41 E7        30.38F
MIDDLEBURY*    FAIR      73  43  33 S3        30.32F
RUTLAND*       SUNNY     76  36  23 CALM      30.34F
SPRINGFIELD    SUNNY     70  49  47 CALM      30.37F
HIGHGATE*      FAIR      73  47  40 SW5       30.30S
NEWPORT*       FAIR      69  51  52 SE8       30.34F
BENNINGTON     SUNNY     78  41  26 VRB3      30.35F
SUTTON*          N/A     70 N/A N/A MISG        N/A

_____LAKE CHAMPLAIN_____


CITY           SKY/WX    TMP DP  RH WIND       PRES   REMARKS
BURTON ISLAND*   N/A     64  50  59 SW7         N/A
COLCHESTER RF*   N/A     63  50  63 S20         N/A
DIAMOND ISL*     N/A     63  48  59 SW8         N/A

$$

NYZ007-026>031-035-052-083-087-221800-
_____NORTHERN NEW YORK_____


CITY           SKY/WX    TMP DP  RH WIND       PRES   REMARKS
PLATTSBURGH    MOSUNNY   65  50  58 SE6       30.30F
SARANAC LAKE   MOSUNNY   74  40  29 SW10      30.31F
MASSENA        SUNNY     73  47  39 CALM      30.29F
OGDENSBURG*    FAIR      74  47  37 SW7       30.27F
POTSDAM*       SUNNY     75  48  38 W3        30.28S
WATERTOWN      MOSUNNY   72  49  44 W7        30.28S
FT DRUM        CLOUDY    71  46  41 SE3       30.28F
ALBANY         PTSUNNY   67  44  43 S9        30.36F
GLENS FALLS    MOSUNNY   66  48  52 SE5       30.35F

$$
NHZ002-005-011-221800-
_____NEW HAMPSHIRE_____


CITY           SKY/WX    TMP DP  RH WIND       PRES   REMARKS
LEBANON        MOSUNNY   65  49  56 CALM      30.36F
KEENE          SUNNY     74  50  42 CALM      30.37F
MT WASHINGTON  PTSUNNY   48  34  57 W18         N/A
PLYMOUTH       FAIR      68  48  50 E6        30.40S
WHITEFIELD     SUNNY     70  52  52 CALM      30.37F

$$

_____REGIONAL QUEBEC LOCATIONS_____


CITY           SKY/WX    TMP DP  RH WIND       PRES   REMARKS
MONTREAL       MOSUNNY   61  50  67 NE9       30.30F
QUEBEC CITY    MOSUNNY   54  34  47 E10       30.38F
SHERBROOKE     SUNNY     73  50  43 CALM      30.32F

_____REGIONAL ONTARIO LOCATIONS_____


CITY           SKY/WX    TMP DP  RH WIND       PRES   REMARKS
OTTAWA         PTSUNNY   68  48  49 S5        30.27F

______KEY______
VSB  - VISIBILITY IN MILES
WCI  - WIND CHILL INDEX
HX   - HEAT INDEX
$$
NNNN




USA.gov is the U.S. government's official web portal to all federal, state and local government web resources and services.